Powrót do katalogu

STARLINK-31007

AktywnyŁącznośćVLEO
NORAD 58889·PAYLOAD·🇺🇸 United States

Wystrzelony Jan 29, 2024 z Vandenberg Space Force Base

Loading…

Następne Przeloty (najbliższe 24 godziny)

TLE

ŚwieżeSource: CelesTrak SupGP

Epoka: Sep 14, 2026, 22:44 UTC

1 58889C 24020P   26257.94770833 -.00059674  00000+0 -17627-2 0  2573
2 58889  53.1572 159.5863 0001301  99.7747 139.8115 15.34427309    15

Śledź STARLINK-31007 w czasie rzeczywistym z AllMySat

Download on the App Store